Location: Kitchener
(43.4500°N, 80.5000°W)
Time: 10:52:48
(UTC-04:00)

Daily predictions for brighter satellites

Satellite Brightness Start Highest point End
(mag) Time Altitude Azimuth Time Altitude Azimuth Time Altitude Azimuth
Cosmos 2251 Rocket 3.6 20:37:43 10° NNW 20:43:06 68° ENE 20:48:26 10° SSE
YAOGAN 6 3.0 20:39:59 10° SE 20:43:24 43° ENE 20:46:52 10° N
Meteor 2-15 4.5 20:38:02 10° N 20:44:10 67° E 20:50:13 10° SSE
Resurs 01 Rocket 2.1 20:40:30 10° SE 20:44:39 42° ENE 20:48:51 10° N
Cosmos 1437 3.4 20:44:40 10° SSW 20:47:49 60° WNW 20:50:59 10° N
Cosmos 44 Rocket 3.5 20:43:15 10° SW 20:48:00 80° NW 20:52:56 10° NNE
Envisat 3.1 20:43:49 10° SSE 20:48:54 85° WSW 20:54:01 10° NNW
Cosmos 2341 Rocket 4.4 20:47:27 10° SSE 20:53:25 45° E 20:59:23 10° NNE
Meteor 2-21 4.5 20:48:52 10° S 20:54:56 68° E 21:01:05 10° NNE
ATLAS CENTAUR R/B 2.0 20:52:18 10° S 20:55:24 27° ESE 20:58:37 10° ENE
In-Cosmos 22 Rocket 4.4 20:51:51 10° NNW 20:57:20 74° W 21:02:40 10° S
Cosmos 1340 2.6 20:53:48 10° S 20:57:35 83° E 21:01:24 10° NNE
Timation 1 Rocket 4.4 20:53:20 10° NNW 20:59:21 83° ENE 21:05:19 10° SSE
NOSS 0 Rocket 4.3 21:01:42 10° S 21:07:24 41° ESE 21:13:09 10° NE
Cosmos 1825 3.4 21:06:31 10° NNE 21:09:39 24° ENE 21:11:37 16° ESE
SL-24 R/B - RUBIN 2 4.0 21:06:22 10° NW 21:10:39 58° WSW 21:14:56 10° SSE
BREEZE-M DEB (TANK) 3.4 21:09:41 10° W 21:12:38 37° NNW 21:14:43 10° NE
Thor Agena Rocket 3.7 21:07:36 10° NNE 21:12:52 85° WNW 21:18:08 10° SSW
Cosmos 1666 Rocket 3.8 21:09:53 10° NNW 21:14:23 77° W 21:18:49 10° S
OE (NEXTSAT) 4.4 21:12:29 10° WSW 21:16:03 84° NNW 21:19:32 11° ENE
SL-16 R/B 3.6 21:17:50 15° ESE 21:18:31 16° E 21:21:44 10° ENE
SJ-11-01 4.2 21:14:01 10° SSE 21:18:40 79° ENE 21:23:21 10° N
Cosmos 1939 Rocket 3.0 21:15:59 10° S 21:19:49 70° WSW 21:23:45 10° NNW
Cosmos 1933 Rocket 4.0 21:16:12 10° N 21:20:24 43° ENE 21:23:24 17° SE
Resurs 1-3 3.7 21:16:08 10° S 21:20:31 80° WSW 21:24:56 10° NNW
USA 186 2.5 21:18:48 10° SSW 21:20:51 33° W 21:22:59 10° NNW
Meteor 2-3 Rocket 3.7 21:15:21 10° N 21:20:58 79° E 21:26:37 10° SSE
SL-8 Rocket 4.2 21:16:29 10° SSE 21:22:30 49° E 21:28:30 10° NNE
NOSS 2-1 (C) 4.0 21:19:07 10° SW 21:22:39 55° NW 21:26:41 10° NNE
NOSS 2-1 (D) 4.1 21:20:06 10° SW 21:23:39 52° NW 21:27:40 10° NNE
Meteor 2-21 Rocket 4.5 21:19:24 10° S 21:25:32 87° W 21:31:46 10° N
Cosmos 220 Rocket 3.9 21:22:14 10° NNW 21:26:37 82° ENE 21:29:56 17° SSE
Sich 1 3.9 21:22:47 10° NNW 21:26:55 49° W 21:31:01 10° SSW
ARGOS 3.8 21:25:40 19° SE 21:29:03 39° ENE 21:33:59 10° N
Cosmos 1869 4.1 21:27:19 21° SE 21:29:03 30° E 21:32:38 10° NNE
ATLAS 2AS CENTAUR R/B 3.0 21:21:19 10° NW 21:29:20 87° NE 21:35:15 17° SE
Cosmos 1151 Rocket 3.1 21:25:25 10° S 21:29:33 54° E 21:33:44 10° NNE
Spot 2 Rocket 3.5 21:26:46 10° SSE 21:31:52 86° WSW 21:37:00 10° NNW
Lacrosse 5 4.2 21:33:40 10° NW 21:37:05 18° N 21:40:29 10° NE
BREEZE-M DEB (TANK) 4.0 21:30:34 10° W 21:38:16 41° NNW 21:41:04 10° NE
SPOT 5 4.3 21:40:05 18° E 21:41:15 20° ENE 21:44:29 10° NNE
Cosmos 1980 3.6 21:39:11 10° SSW 21:44:49 70° ESE 21:50:29 10° NNE
Cosmos 1633 Rocket 4.3 21:43:14 10° NNW 21:47:18 40° W 21:51:21 10° SSW
CZ-4B DEB 4.4 21:46:16 29° SSE 21:47:58 89° NE 21:51:29 10° NNW
Meteor 2-10 Rocket 4.1 21:46:07 20° SSE 21:49:44 46° E 21:55:15 10° NNE
Cosmos 2333 Rocket 2.6 21:47:46 10° SW 21:53:23 66° WNW 21:59:02 10° NNE
Cosmos 864 Rocket 4.4 21:49:04 13° S 21:54:26 62° E 22:00:29 10° NNE
Cosmos 2369 Rocket 4.4 21:53:40 10° NNE 21:55:32 11° NE 21:57:23 10° ENE
Cosmos 1455 3.8 21:54:58 10° SW 21:58:31 36° WNW 22:02:07 10° N
Cosmos 2228 Rocket 3.3 21:54:14 10° SSW 21:58:35 69° W 22:02:59 10° N
Cosmos 1515 Rocket 3.9 21:54:22 10° SSW 21:58:48 69° W 22:03:16 10° N
COSMOS 2428 4.3 21:53:33 10° SW 21:58:50 38° NW 22:04:09 10° N
NOSS 3-4 (A) 4.2 21:52:47 10° NNW 21:59:35 53° NE 22:03:34 27° ESE
NOSS 3-4 (C) 4.2 21:52:53 10° NNW 21:59:41 53° NE 22:03:39 27° ESE
Helios 1A 3.8 21:59:12 31° E 21:59:47 33° ENE 22:03:33 10° N
Cosmos 1408 2.8 21:56:26 10° NNW 22:00:05 69° W 22:01:42 31° S
USA 81 4.3 21:55:47 10° N 22:00:54 48° E 22:02:39 35° SE
SPOT 1/Viking Rocket 4.5 22:00:11 28° E 22:01:35 32° ENE 22:06:10 10° N
Cosmos 407 Rocket 3.6 22:04:37 10° NNW 22:09:41 56° ENE 22:11:08 41° ESE
H-2A R/B 2.0 22:07:50 38° SE 22:09:43 67° ENE 22:14:40 10° N
SL-8 R/B 3.5 22:05:26 10° SW 22:10:13 72° SSE 22:12:51 26° ENE
ERS-1 Rocket 3.0 22:10:14 41° SE 22:11:53 64° ENE 22:16:52 10° N
Cosmos 2219 Rocket 3.5 22:06:50 10° SW 22:12:09 41° WNW 22:17:30 10° NNE
USA 267 3.5 22:06:12 10° ENE 22:12:18 41° SE 22:18:22 10° SSW
Cosmos 2237 Rocket 2.3 22:06:51 10° SSW 22:12:28 78° WNW 22:18:08 10° NNE
Cosmos 1862 3.7 22:10:09 10° N 22:14:03 46° ENE 22:14:03 46° ENE
MetOp-A 4.1 22:12:25 31° SSE 22:15:05 85° WSW 22:20:29 10° NNW
Cosmos 1371 Rocket 3.9 22:12:49 10° SSW 22:18:07 87° ESE 22:23:31 10° NNE
Cosmos 2278 Rocket 2.7 22:15:10 10° NNW 22:20:42 55° WSW 22:23:35 27° S
Resurs 01 Rocket 4.0 22:18:06 10° SW 22:21:18 19° W 22:24:32 10° NW
SL-08 RB Rocket 3.6 22:24:45 52° S 22:25:49 84° WSW 22:30:19 10° NNW
Cosmos 405 Rocket 3.4 22:28:05 41° NE 22:28:05 41° NE 22:30:56 10° NNE
ATLAS 5 CENTAUR R/B 4.2 22:23:44 10° NNW 22:27:50 19° NNE 22:31:07 13° ENE
Cosmos 676 Rocket 4.2 22:23:25 10° NNW 22:28:33 52° ENE 22:29:20 47° E
Cosmos 1727 Rocket 3.9 22:22:31 10° N 22:28:44 85° W 22:31:34 34° S
Cosmos 1821 Rocket 4.3 22:33:03 43° ESE 22:33:57 46° E 22:39:57 10° NNE
ATLAS CENTAUR R/B 3.3 22:31:06 10° WSW 22:34:18 27° NW 22:37:39 10° NNE
Cosmos 2056 Rocket 3.6 22:35:44 19° SSW 22:39:46 78° WNW 22:45:12 10° NNE
Cosmos 1452 Rocket 4.2 22:42:01 37° ENE 22:42:01 37° ENE 22:45:46 10° NNE
Cosmos 2098 Rocket 4.0 22:39:29 20° SW 22:42:21 44° W 22:46:05 10° N
Cosmos 1023 Rocket 4.5 22:39:51 10° NNW 22:44:59 61° ENE 22:45:14 60° E
Cosmos 1825 4.3 22:42:07 10° NW 22:45:06 22° W 22:46:31 18° WSW
USA 234 4.2 22:43:06 22° ENE 22:46:44 41° NNE 22:52:46 10° NW
Landsat 7 3.9 22:46:49 62° ENE 22:46:49 62° ENE 22:51:26 10° N
Cosmos 405 4.2 22:45:12 10° NNW 22:48:07 39° WNW 22:48:07 39° WNW
Spot 1 4.3 22:55:32 77° ENE 22:55:32 77° ENE 23:00:17 10° N
Cosmos 1933 4.3 22:57:18 41° NNE 22:57:18 41° NNE 23:00:02 10° N
SL-16 R/B 2.2 22:59:34 37° SW 23:01:54 76° WNW 23:07:35 10° NNE
Cosmos 2344 3.5 22:58:40 34° S 23:02:10 66° ESE 23:10:22 10° NE
Terra 2.2 23:05:06 56° NE 23:05:06 56° NE 23:09:12 10° N
GEOS 3 Rocket 3.9 22:59:14 10° NNE 23:04:35 69° NW 23:09:48 10° SW
Cosmos 1535 Rocket 4.4 23:04:34 65° ESE 23:05:00 66° E 23:11:19 10° NNE
Cosmos 1140 Rocket 3.4 23:01:40 10° NNW 23:06:45 85° NW 23:06:45 85° NW
CZ-4C R/B 3.6 23:13:19 24° ENE 23:13:19 24° ENE 23:15:53 10° NE
Cosmos 1943 Rocket 3.5 23:08:30 10° N 23:13:08 26° NE 23:13:21 26° ENE
Cosmos 1707 Rocket 4.3 23:13:35 50° WNW 23:13:35 50° WNW 23:17:26 10° N
Cosmos 1954 Rocket 4.0 23:08:12 10° NNW 23:13:15 75° W 23:13:15 75° W
CZ-2C R/B 3.7 23:14:25 40° NE 23:14:25 40° NE 23:18:03 10° N
Meteor 1-14 Rocket 4.4 23:13:03 10° N 23:18:02 59° NE 23:18:02 59° NE
SPOT 5 3.5 23:19:19 45° W 23:19:19 45° W 23:23:23 10° NNW
Helios 1B rocket 3.5 23:16:35 10° N 23:19:46 44° NNW 23:19:46 44° NNW
Lacrosse 5 3.1 23:16:52 10° NW 23:21:26 32° NNE 23:21:58 31° NE
Cosmos 1605 Rocket 4.3 23:24:41 54° ENE 23:24:41 54° ENE 23:30:20 10° NNE
Cosmos 1733 Rocket 4.2 23:28:30 10° N 23:31:26 41° NNW 23:31:26 41° NNW
Cosmos 2369 Rocket 2.7 23:35:17 10° NNW 23:40:15 53° NE 23:40:15 53° NE
Meteor 2-17 Rocket 4.4 23:42:28 81° N 23:42:28 81° N 23:48:18 10° N
Cosmos 1420 Rocket 4.5 23:45:16 58° NNW 23:45:16 58° NNW 23:49:58 10° NNE
Meteor 1-25 Rocket 4.4 23:41:29 10° NNW 23:46:35 69° NNW 23:46:35 69° NNW
H-2A R/B 4.3 23:48:27 14° WSW 23:49:35 15° W 23:52:24 10° NW
RESURS DK-1 4.5 23:45:45 10° NNW 23:47:43 24° N 23:47:43 24° N
